Time,TemperatureF,DewpointF,PressureIn,WindDirection,WindDirectionDegrees,WindSpeedMPH,WindSpeedGustMPH,Humidity,HourlyPrecipIn,Conditions,Clouds,dailyrainin,SoftwareType,DateUTC
2013-02-03 00:08:00,35.6,35.1,29.87,WSW,247,6.7,-999.0,98,-99.99,,,0.00,Acu-Link.com,2013-02-03 05:08:00,
2013-02-03 00:23:00,35.6,35.1,29.87,SSW,202,9.2,-999.0,98,-99.99,,,0.00,Acu-Link.com,2013-02-03 05:23:00,
2013-02-03 00:39:00,35.6,35.1,29.87,WSW,247,9.2,-999.0,98,-99.99,,,0.00,Acu-Link.com,2013-02-03 05:39:00,
2013-02-03 00:54:00,35.6,35.1,29.86,WSW,247,7.8,-999.0,98,-99.99,,,0.00,Acu-Link.com,2013-02-03 05:54:00,
2013-02-03 01:09:00,35.6,35.1,29.86,WNW,292,6.7,-999.0,98,-99.99,,,0.00,Acu-Link.com,2013-02-03 06:09:00,
2013-02-03 01:25:00,35.6,35.1,29.86,WSW,247,3.6,-999.0,98,-99.99,,,0.00,Acu-Link.com,2013-02-03 06:25:00,
2013-02-03 01:40:00,33.8,33.3,29.85,West,270,2.7,-999.0,98,-99.99,,,0.00,Acu-Link.com,2013-02-03 06:40:00,
2013-02-03 01:55:00,33.8,33.3,29.85,WSW,247,5.6,-999.0,98,-99.99,,,0.00,Acu-Link.com,2013-02-03 06:55:00,
2013-02-03 02:11:00,33.8,33.3,29.85,SSW,202,6.3,-999.0,98,-99.99,,,0.00,Acu-Link.com,2013-02-03 07:11:00,
2013-02-03 02:26:00,33.8,33.3,29.84,WSW,247,4.7,-999.0,98,-99.99,,,0.00,Acu-Link.com,2013-02-03 07:26:00,
2013-02-03 02:41:00,33.8,33.3,29.83,SSW,202,7.2,-999.0,98,-99.99,,,0.00,Acu-Link.com,2013-02-03 07:41:00,
2013-02-03 02:56:00,33.8,32.5,29.84,WNW,292,6.3,-999.0,95,-99.99,,,0.00,Acu-Link.com,2013-02-03 07:56:00,
2013-02-03 03:12:00,33.8,32.0,29.83,WSW,247,4.0,-999.0,93,-99.99,,,0.00,Acu-Link.com,2013-02-03 08:12:00,
2013-02-03 03:27:00,33.8,31.7,29.83,SSW,202,8.3,-999.0,92,-99.99,,,0.00,Acu-Link.com,2013-02-03 08:27:00,
2013-02-03 03:42:00,33.8,31.7,29.83,West,270,6.3,-999.0,92,-99.99,,,0.00,Acu-Link.com,2013-02-03 08:42:00,
2013-02-03 03:57:00,33.8,31.2,29.82,SW,225,2.7,-999.0,90,-99.99,,,0.00,Acu-Link.com,2013-02-03 08:57:00,
2013-02-03 04:13:00,33.8,31.2,29.82,West,270,3.1,-999.0,90,-99.99,,,0.00,Acu-Link.com,2013-02-03 09:13:00,
2013-02-03 04:28:00,33.8,31.2,29.82,SSW,202,3.1,-999.0,90,-99.99,,,0.00,Acu-Link.com,2013-02-03 09:28:00,
2013-02-03 04:43:00,32.0,29.4,29.82,WSW,247,3.6,-999.0,90,-99.99,,,0.00,Acu-Link.com,2013-02-03 09:43:00,
2013-02-03 04:59:00,32.0,29.7,29.82,SW,225,1.6,-999.0,91,-99.99,,,0.00,Acu-Link.com,2013-02-03 09:59:00,
2013-02-03 05:14:00,32.0,29.7,29.83,South,180,2.7,-999.0,91,-99.99,,,0.00,Acu-Link.com,2013-02-03 10:14:00,
2013-02-03 05:29:00,32.0,29.9,29.83,West,270,2.0,-999.0,92,-99.99,,,0.00,Acu-Link.com,2013-02-03 10:29:00,
2013-02-03 05:44:00,32.0,31.5,29.83,SW,225,3.6,-999.0,98,-99.99,,,0.00,Acu-Link.com,2013-02-03 10:44:00,
2013-02-03 06:00:00,32.0,29.7,29.83,West,270,5.1,-999.0,91,-99.99,,,0.00,Acu-Link.com,2013-02-03 11:00:00,
2013-02-03 06:15:00,32.0,28.6,29.82,SW,225,4.0,-999.0,87,-99.99,,,0.00,Acu-Link.com,2013-02-03 11:15:00,
2013-02-03 06:30:00,32.0,28.6,29.82,West,270,3.1,-999.0,87,-99.99,,,0.00,Acu-Link.com,2013-02-03 11:30:00,
2013-02-03 06:46:00,32.0,28.6,29.83,West,270,4.7,-999.0,87,-99.99,,,0.00,Acu-Link.com,2013-02-03 11:46:00,
2013-02-03 07:01:00,32.0,28.3,29.82,SW,225,6.3,-999.0,86,-99.99,,,0.00,Acu-Link.com,2013-02-03 12:01:00,
2013-02-03 07:16:00,32.0,28.6,29.82,WSW,247,3.6,-999.0,87,-99.99,,,0.00,Acu-Link.com,2013-02-03 12:16:00,
2013-02-03 07:31:00,32.0,28.6,29.80,SSW,202,6.3,-999.0,87,-99.99,,,0.00,Acu-Link.com,2013-02-03 12:31:00,
2013-02-03 07:47:00,32.0,28.6,29.81,SW,225,5.1,-999.0,87,-99.99,,,0.00,Acu-Link.com,2013-02-03 12:47:00,
2013-02-03 08:02:00,33.8,29.2,29.81,SSW,202,4.7,-999.0,83,-99.99,,,0.00,Acu-Link.com,2013-02-03 13:02:00,
2013-02-03 08:17:00,35.6,30.4,29.83,South,180,6.7,-999.0,81,-99.99,,,0.00,Acu-Link.com,2013-02-03 13:17:00,
2013-02-03 08:33:00,35.6,30.4,29.84,SSW,202,4.0,-999.0,81,-99.99,,,0.00,Acu-Link.com,2013-02-03 13:33:00,
2013-02-03 08:48:00,37.4,31.5,29.83,SW,225,5.6,-999.0,79,-99.99,,,0.00,Acu-Link.com,2013-02-03 13:48:00,
2013-02-03 09:03:00,37.4,32.1,29.83,South,180,3.6,-999.0,81,-99.99,,,0.00,Acu-Link.com,2013-02-03 14:03:00,
2013-02-03 09:19:00,39.2,32.9,29.84,SW,225,4.7,-999.0,78,-99.99,,,0.00,Acu-Link.com,2013-02-03 14:19:00,
2013-02-03 09:34:00,37.4,31.8,29.83,SW,225,5.6,-999.0,80,-99.99,,,0.00,Acu-Link.com,2013-02-03 14:34:00,
2013-02-03 09:49:00,39.2,32.6,29.83,SW,225,4.0,-999.0,77,-99.99,,,0.00,Acu-Link.com,2013-02-03 14:49:00,
2013-02-03 10:04:00,41.0,34.0,29.83,South,180,5.1,-999.0,76,-99.99,,,0.00,Acu-Link.com,2013-02-03 15:04:00,
2013-02-03 10:20:00,41.0,33.4,29.82,SSW,202,4.0,-999.0,74,-99.99,,,0.00,Acu-Link.com,2013-02-03 15:20:00,
2013-02-03 10:35:00,42.8,34.4,29.82,West,270,3.6,-999.0,72,-99.99,,,0.00,Acu-Link.com,2013-02-03 15:35:00,
2013-02-03 10:50:00,44.6,35.8,29.81,SSW,202,4.7,-999.0,71,-99.99,,,0.00,Acu-Link.com,2013-02-03 15:50:00,
2013-02-03 11:06:00,44.6,35.1,29.80,SSW,202,10.3,-999.0,69,-99.99,,,0.01,Acu-Link.com,2013-02-03 16:06:00,
2013-02-03 11:21:00,46.4,36.0,29.79,SW,225,13.4,-999.0,67,-99.99,,,0.01,Acu-Link.com,2013-02-03 16:21:00,
2013-02-03 11:36:00,46.4,35.3,29.79,West,270,18.6,-999.0,65,-99.99,,,0.01,Acu-Link.com,2013-02-03 16:36:00,
2013-02-03 11:52:00,46.4,34.5,29.78,SSE,157,9.8,-999.0,63,-99.99,,,0.01,Acu-Link.com,2013-02-03 16:52:00,
2013-02-03 12:07:00,50.0,37.5,29.77,SW,225,11.9,-999.0,62,-99.99,,,0.01,Acu-Link.com,2013-02-03 17:07:00,
2013-02-03 12:22:00,50.0,37.1,29.77,SSW,202,9.8,-999.0,61,-99.99,,,0.01,Acu-Link.com,2013-02-03 17:22:00,
2013-02-03 12:37:00,50.0,34.9,29.76,South,180,11.4,-999.0,56,-99.99,,,0.01,Acu-Link.com,2013-02-03 17:37:00,
2013-02-03 12:52:00,51.8,34.7,29.75,SSW,202,13.0,-999.0,52,-99.99,,,0.01,Acu-Link.com,2013-02-03 17:52:00,
2013-02-03 13:08:00,51.8,32.7,29.74,NW,315,9.8,-999.0,48,-99.99,,,0.01,Acu-Link.com,2013-02-03 18:08:00,
2013-02-03 13:23:00,53.6,31.7,29.73,WSW,247,11.9,-999.0,43,-99.99,,,0.01,Acu-Link.com,2013-02-03 18:23:00,
2013-02-03 13:38:00,53.6,30.5,29.72,West,270,7.2,-999.0,41,-99.99,,,0.01,Acu-Link.com,2013-02-03 18:38:00,
2013-02-03 13:54:00,53.6,29.3,29.72,West,270,10.3,-999.0,39,-99.99,,,0.01,Acu-Link.com,2013-02-03 18:54:00,
2013-02-03 14:09:00,53.6,29.9,29.72,WNW,292,7.2,-999.0,40,-99.99,,,0.01,Acu-Link.com,2013-02-03 19:09:00,
2013-02-03 14:24:00,53.6,29.9,29.73,WSW,247,7.8,-999.0,40,-99.99,,,0.01,Acu-Link.com,2013-02-03 19:24:00,
2013-02-03 14:39:00,53.6,28.0,29.73,WNW,292,7.8,-999.0,37,-99.99,,,0.01,Acu-Link.com,2013-02-03 19:39:00,
2013-02-03 14:55:00,53.6,27.3,29.72,NW,315,8.3,-999.0,36,-99.99,,,0.01,Acu-Link.com,2013-02-03 19:55:00,
2013-02-03 15:10:00,53.6,22.9,29.73,WSW,247,6.7,-999.0,30,-99.99,,,0.01,Acu-Link.com,2013-02-03 20:10:00,
2013-02-03 15:25:00,53.6,23.7,29.73,WNW,292,11.4,-999.0,31,-99.99,,,0.01,Acu-Link.com,2013-02-03 20:25:00,
2013-02-03 15:41:00,53.6,23.7,29.75,West,270,6.3,-999.0,31,-99.99,,,0.01,Acu-Link.com,2013-02-03 20:41:00,
2013-02-03 15:56:00,51.8,22.9,29.75,WNW,292,8.3,-999.0,32,-99.99,,,0.01,Acu-Link.com,2013-02-03 20:56:00,
2013-02-03 16:11:00,51.8,24.3,29.75,West,270,3.6,-999.0,34,-99.99,,,0.01,Acu-Link.com,2013-02-03 21:11:00,
2013-02-03 16:26:00,50.0,22.0,29.77,NW,315,5.1,-999.0,33,-99.99,,,0.01,Acu-Link.com,2013-02-03 21:26:00,
2013-02-03 16:42:00,51.8,25.0,29.77,NNE,22,10.3,-999.0,35,-99.99,,,0.01,Acu-Link.com,2013-02-03 21:42:00,
2013-02-03 16:57:00,50.0,24.1,29.78,SSW,202,6.3,-999.0,36,-99.99,,,0.01,Acu-Link.com,2013-02-03 21:57:00,
2013-02-03 17:12:00,50.0,24.8,29.78,West,270,8.7,-999.0,37,-99.99,,,0.01,Acu-Link.com,2013-02-03 22:12:00,
2013-02-03 17:28:00,50.0,25.4,29.79,SSW,202,2.0,-999.0,38,-99.99,,,0.01,Acu-Link.com,2013-02-03 22:28:00,
2013-02-03 17:43:00,46.4,24.0,29.79,WSW,247,4.7,-999.0,41,-99.99,,,0.01,Acu-Link.com,2013-02-03 22:43:00,
2013-02-03 17:58:00,46.4,25.1,29.80,WSW,247,2.0,-999.0,43,-99.99,,,0.01,Acu-Link.com,2013-02-03 22:58:00,
2013-02-03 18:13:00,44.6,24.6,29.80,WNW,292,2.7,-999.0,45,-99.99,,,0.01,Acu-Link.com,2013-02-03 23:13:00,
2013-02-03 18:29:00,44.6,25.6,29.80,WSW,247,2.7,-999.0,47,-99.99,,,0.01,Acu-Link.com,2013-02-03 23:29:00,
2013-02-03 18:44:00,42.8,24.5,29.81,SSW,202,3.1,-999.0,48,-99.99,,,0.01,Acu-Link.com,2013-02-03 23:44:00,
2013-02-03 18:59:00,42.8,25.5,29.81,WSW,247,4.7,-999.0,50,-99.99,,,0.01,Acu-Link.com,2013-02-03 23:59:00,
2013-02-03 19:15:00,42.8,25.0,29.82,WSW,247,3.6,-999.0,49,-99.99,,,0.01,Acu-Link.com,2013-02-04 00:15:00,
2013-02-03 19:30:00,42.8,25.9,29.82,West,270,3.1,-999.0,51,-99.99,,,0.01,Acu-Link.com,2013-02-04 00:30:00,
2013-02-03 19:45:00,42.8,25.5,29.83,West,270,4.0,-999.0,50,-99.99,,,0.01,Acu-Link.com,2013-02-04 00:45:00,
2013-02-03 20:01:00,41.0,24.3,29.83,NNE,22,2.7,-999.0,51,-99.99,,,0.01,Acu-Link.com,2013-02-04 01:01:00,
2013-02-03 20:16:00,41.0,24.7,29.84,NW,315,2.0,-999.0,52,-99.99,,,0.01,Acu-Link.com,2013-02-04 01:16:00,
2013-02-03 20:31:00,41.0,24.7,29.84,WNW,292,3.1,-999.0,52,-99.99,,,0.01,Acu-Link.com,2013-02-04 01:31:00,
2013-02-03 20:46:00,41.0,24.7,29.84,WNW,292,4.0,-999.0,52,-99.99,,,0.01,Acu-Link.com,2013-02-04 01:46:00,
2013-02-03 21:02:00,41.0,25.6,29.84,West,270,2.0,-999.0,54,-99.99,,,0.01,Acu-Link.com,2013-02-04 02:02:00,
2013-02-03 21:17:00,39.2,24.4,29.84,WSW,247,4.0,-999.0,55,-99.99,,,0.01,Acu-Link.com,2013-02-04 02:17:00,
2013-02-03 21:32:00,39.2,24.4,29.85,West,270,1.6,-999.0,55,-99.99,,,0.01,Acu-Link.com,2013-02-04 02:32:00,
2013-02-03 21:48:00,37.4,23.2,29.84,WNW,292,2.7,-999.0,56,-99.99,,,0.01,Acu-Link.com,2013-02-04 02:48:00,
2013-02-03 22:03:00,39.2,23.5,29.84,NW,315,3.6,-999.0,53,-99.99,,,0.01,Acu-Link.com,2013-02-04 03:03:00,
2013-02-03 22:18:00,39.2,23.5,29.84,WSW,247,3.1,-999.0,53,-99.99,,,0.01,Acu-Link.com,2013-02-04 03:18:00,
2013-02-03 22:42:00,39.2,23.5,29.84,West,270,2.7,-999.0,53,-99.99,,,0.01,Acu-Link.com,2013-02-04 03:42:00,
2013-02-03 22:57:00,37.4,22.7,29.85,WSW,247,5.6,-999.0,55,-99.99,,,0.01,Acu-Link.com,2013-02-04 03:57:00,
2013-02-03 23:13:00,37.4,24.0,29.85,ESE,112,2.0,-999.0,58,-99.99,,,0.01,Acu-Link.com,2013-02-04 04:13:00,
2013-02-03 23:28:00,35.6,23.1,29.85,WNW,292,0.0,-999.0,60,-99.99,,,0.01,Acu-Link.com,2013-02-04 04:28:00,
2013-02-03 23:43:00,35.6,23.5,29.86,SSW,202,3.1,-999.0,61,-99.99,,,0.01,Acu-Link.com,2013-02-04 04:43:00,
2013-02-03 23:58:00,35.6,24.3,29.85,WSW,247,0.0,-999.0,63,-99.99,,,0.01,Acu-Link.com,2013-02-04 04:58:00,